Challenge de la Province du Hainaut

Les Foulée De L'E.T.E. (Virtuel) - Enghien (10.00 km)

04 juin au 13 juin 2021

Vous pouvez trouver Le classement original sur : www.challengehainaut.be
CHALLENGE DE LA PROVINCE DU HAINAUT
LEE FOULÉE DE L'E.T.E. DE ENGHIEN (VIRTUEL)
DISTANCE 10.03 km
04 juin au 13 juin 2021
 
Place NOM Temps Temps/km Vitesse
01:00:00        
1 FRANCOIS LECOLLEY 0:36:50 03:40 16.34
2 VINCENT KOLP 0:37:05 03:42 16.23
3 JEROME LIMELETTE 0:38:05 03:48 15.80
4 GLEN HEYE 0:38:50 03:52 15.49
5 DIMITRI KRIKILION 0:38:56 03:53 15.45
6 RICARDO DOS REIS MONTEIRO 0:39:17 03:55 15.32
7 NATHAN GHYSELS 0:40:08 04:00 14.99
8 JEREMIE DECK 0:40:12 04:01 14.97
9 THOMAS DUBAR 0:40:14 04:01 14.95
10 STEPHANE BOSTEM 0:40:58 04:05 14.69
11 LIVIO BALBO 0:41:13 04:07 14.60
12 JEAN-PHILIPPE CAVYN 0:41:34 04:09 14.48
13 JO DER 0:41:45 04:10 14.42
14 MATTHIAS MEULEMAN 0:41:56 04:11 14.35
15 PIERRE FITDEVOIE 0:42:27 04:14 14.18
16 VINCENT NAGY 0:42:41 04:15 14.10
17 PHILIPPE GOUVERNEUR 0:42:44 04:16 14.09
18 TOF ZWINGS 0:42:51 04:16 14.05
19 PHILIPPE DEJARDIN 0:42:56 04:17 14.02
20 PETER VAN QUEKELBERGHE 0:43:30 04:20 13.84
21 TERESA BALDARELLI 0:43:57 04:23 13.70
22 DAMIEN DECK 0:44:43 04:27 13.46
23 JORIS DECK 0:44:44 04:28 13.46
24 MICKAEL WATTIN 0:44:50 04:28 13.43
25 SAMUEL LETELLIER 0:45:10 04:30 13.33
26 STEVE VAN KERKEM 0:45:13 04:30 13.31
27 SYLVIE WAUQUIER 0:45:15 04:31 13.30
28 PIERRE BATAILLE 0:45:17 04:31 13.29
29 VIRGINIE KOLP 0:45:18 04:31 13.29
30 VINCENT KOLP 0:45:21 04:31 13.27
31 PASCAL FLAMME 0:45:23 04:31 13.26
32 ANDY SALET 0:45:32 04:32 13.22
33 NICOLAS ULLENS 0:45:43 04:33 13.17
34 ANNICK COURBET 0:45:47 04:34 13.15
35 STEVE DE JONGH 0:46:15 04:37 13.01
36 CHRISTOPHE VAN ACHTE 0:46:19 04:37 13.00
37 LIONEL BAEDEWYNS 0:46:24 04:38 12.97
38 FLORENT WANCQUET 0:46:27 04:38 12.96
39 RUDY DE VLEESCHAUWER 0:46:30 04:38 12.94
40 VINCENT DOUDELET 0:46:50 04:40 12.85
41 NICOLAS HERPOEL 0:47:02 04:41 12.80
42 JULIEN VERSTRAETEN 0:47:12 04:42 12.75
43 FREDERIC GHYSELS 0:47:22 04:43 12.71
44 NICOLAS CUVELIER 0:47:25 04:44 12.69
45 EDDY DOCLOT 0:47:38 04:45 12.64
46 KRISTOF GERARD 0:48:01 04:47 12.53
47 OLIVIER HUART 0:48:02 04:47 12.53
48 MATHIEU VERMALEN 0:48:09 04:48 12.50
49 BERARDO PASQUA 0:48:20 04:49 12.45
50 STEVE DE JONGH 0:48:23 04:49 12.44
51 ADRIEN DEFRAENE 0:48:30 04:50 12.41
52 THOMAS VERNIERS 0:48:36 04:51 12.38
53 OLIVIER HUART 0:48:42 04:51 12.36
54 LAURENT BLAIRON 0:48:42 04:51 12.36
55 JEAN-LOUIS LOOPS 0:49:06 04:54 12.26
56 VALERIAN DUPONT 0:49:09 04:54 12.25
57 MICHAEL VAN WYMEERSCH 0:49:10 04:54 12.24
58 YVES DELPORTE 0:49:10 04:54 12.24
59 MAXIME LIZON 0:49:13 04:54 12.23
60 LORENZO DI PISA 0:49:16 04:55 12.22
61 ALLAN HAINAUT 0:49:30 04:56 12.16
62 DAVID DE WULF 0:49:32 04:56 12.15
63 SEBASTIEN F. 0:49:37 04:57 12.13
64 ALAIN NEMETH 0:49:47 04:58 12.09
65 JEAN-CLAUDE HARVENT 0:49:53 04:58 12.07
66 SEBASTIEN FITDEVOIE 0:49:54 04:58 12.06
67 NATACHA BOUILLON 0:49:55 04:59 12.06
68 SYLVIE PLETINCKX 0:50:15 05:01 11.98
69 GAETAN HEUCHAMPS 0:50:19 05:01 11.96
70 GAETAN HEUCHAMPS 0:50:19 05:01 11.96
71 ROMAIN MESTRE 0:50:20 05:01 11.96
72 PAUL TITART 0:50:28 05:02 11.93
73 LORENZO SERAFIN 0:51:18 05:07 11.73
74 DAVID CASAGRANDE 0:51:18 05:07 11.73
75 NICOLAS DELVIN 0:51:30 05:08 11.69
76 MICHEL HEMERYCK 0:51:31 05:08 11.68
77 WIM DE MOYTER 0:51:37 05:09 11.66
78 JULIEN ADANT 0:52:08 05:12 11.54
79 BENJAMIN BIETTLOT 0:52:39 05:15 11.43
80 VINCENT VANHERCK 0:52:43 05:15 11.42
81 JOHN REDWOOD 0:52:51 05:16 11.39
82 SEBASTIEN DE VAL 0:52:56 05:17 11.37
83 SEVERINE DESHAYES 0:53:07 05:18 11.33
84 FABIAN VANDERCAM 0:53:09 05:18 11.32
85 PATRICIA MERTENS 0:53:27 05:20 11.26
86 JOHN FERAUCHE 0:53:41 05:21 11.21
87 THOMAS BEKAERT 0:53:45 05:21 11.20
88 KAYRO ZEN 0:53:46 05:22 11.19
89 EMILIE LIBBERECHT 0:53:47 05:22 11.19
90 VINCENT BOTTE 0:53:54 05:22 11.17
91 FRANCISCO RISO 0:54:18 05:25 11.08
92 MICHAEL BODDEN 0:54:22 05:25 11.07
93 OLIVIER DUEZ 0:54:29 05:26 11.05
94 FREDERIC GUILMOT 0:54:31 05:26 11.04
95 MEDERIC THOMAS 0:54:45 05:27 10.99
96 JEREMY HAMAIDE 0:54:46 05:28 10.99
97 OLIVIER DUEZ 0:54:48 05:28 10.98
98 ANGELIQUE MAGNIER 0:54:49 05:28 10.98
99 ERIK PIERON 0:54:49 05:28 10.98
100 NICOLAS BERTAGNE 0:54:58 05:29 10.95
101 SARAH LEGRAIE 0:55:06 05:30 10.92
102 ANNE-LISE DERIDDER 0:55:13 05:30 10.90
103 FLORENT WANCQUET 0:55:17 05:31 10.89
104 PATRICK GUILLAUME 0:55:20 05:31 10.88
105 MURIEL COCHEZ 0:55:21 05:31 10.87
106 MURIEL COCHEZ 0:55:21 05:31 10.87
107 NATHALIE MYTTENAERS 0:56:13 05:36 10.71
108 CELINE SOETENS 0:56:35 05:38 10.64
109 JIMMY MINET 0:56:37 05:39 10.63
110 JULIEN TOLLET 0:56:37 05:39 10.63
111 LAURENCE TONDEUR 0:56:47 05:40 10.60
112 BENOIT DE CONINCK 0:56:50 05:40 10.59
113 FREDERIC MANQUOY 0:56:54 05:40 10.58
114 ELOUAN PIERRART 0:57:01 05:41 10.56
115 MAXIME DOYEN 0:57:26 05:44 10.48
116 DAVID DOYEN 0:57:26 05:44 10.48
117 ALEX LANCKRIET 0:58:12 05:48 10.34
118 CHRISTOPHE MAELSCHALCK 0:58:17 05:49 10.33
119 WILLIAM PLUMET 0:58:33 05:50 10.28
120 LUKA THYS 0:58:41 05:51 10.26
121 THIERRY DOLHEN 0:58:52 05:52 10.22
122 ROBERT HENDRICK 0:59:04 05:53 10.19
123 EMMANUELLE SALBERTER 0:59:12 05:54 10.17
124 FREDERIC DECK 0:59:15 05:54 10.16
125 ISABELLE RENARD 0:59:30 05:56 10.12
126 GILLES MESTRE 0:59:30 05:56 10.12
127 EVE MESTRE 0:59:30 05:56 10.12
128 JOCELYNE PATER 0:59:35 05:56 10.10
129 FRANÇOIS GOFFE 0:59:48 05:58 10.06
130 STEPHAN HONGNE 0:59:50 05:58 10.06
131 ALBERT VINCENT 0:59:51 05:58 10.06
132 NATACHA BOUILLON 0:59:55 05:58 10.04
133 ISABELLE RENARD 1:00:04 05:59 10.02
134 DELPHINE PREAUX 1:00:12 06:00 10.00
135 EMMANUELLE SALBERTER 1:00:12 06:00 10.00
136 EVE MESTRE 1:00:16 06:00 9.99
137 ALFINO BUTTICE 1:00:55 06:04 9.88
138 CARINE VION 1:01:08 06:06 9.84
139 ANNE DEVILLE 1:01:10 06:06 9.84
140 FABIENNE CARON 1:01:13 06:06 9.83
141 VERONIQUE GUERIN 1:01:41 06:09 9.76
142 FABRICE SAROT 1:01:44 06:09 9.75
143 MONIQUE VRANCKX 1:01:48 06:10 9.74
144 ANTOINE VAN SAN 1:01:55 06:10 9.72
145 JOEL DREUX 1:01:57 06:11 9.71
146 NICOLAS DEGREUSE 1:01:58 06:11 9.71
147 VAN HECKE GEORGES 1:02:01 06:11 9.70
148 MARC DELCAMPE 1:02:39 06:15 9.61
149 STEPHANIE BUYLE 1:02:43 06:15 9.60
150 ALAIN PIRET 1:02:44 06:15 9.59
151 ALAIN PIRET 1:02:46 06:15 9.59
152 DORIANE JACQUARD 1:02:47 06:16 9.59
153 NANCY DELHELLE 1:02:49 06:16 9.58
154 MARIKA SIRKO 1:02:56 06:16 9.56
155 CHRISTIAN SCARNIET 1:03:58 06:23 9.41
156 SANDRINE CASTIEAU 1:04:05 06:23 9.39
157 ELISE SCARNIET 1:04:10 06:24 9.38
158 JEAN-MARC VANDERAA 1:04:47 06:28 9.29
159 JEAN-MARC VANDERAA 1:05:39 06:33 9.17
160 MARIE-EMILE SEPTON 1:05:50 06:34 9.14
161 CLAUDE SCHOONHEYT 1:05:51 06:34 9.14
162 BERTRAND SAUVAGE 1:05:53 06:34 9.13
163 EDITH JOUE 1:05:53 06:34 9.13
164 JOHAN LELOUX 1:06:20 06:37 9.07
165 AURELIE BONIVER 1:06:21 06:37 9.07
166 AMBRE POELAERT 1:06:27 06:37 9.06
167 MARYLÈNE DELAHAUTEMAISON 1:06:33 06:38 9.04
168 CARINE CAT 1:06:41 06:39 9.03
169 ANGELINA CARDELLA 1:06:41 06:39 9.03
170 IRENA GIUNTA 1:06:41 06:39 9.03
171 VALENTINE D'HOERAENE 1:06:44 06:39 9.02
172 CLAUDE SCHOONHEYT 1:06:45 06:39 9.02
173 EZECHIEL PIERRART 1:06:55 06:40 8.99
174 CHRISTELLE FITDEVOIE 1:06:57 06:40 8.99
175 NINA SELLONI 1:07:01 06:41 8.98
176 NANCY FEYTENS 1:07:08 06:42 8.96
177 AMANDINE MALHAISE 1:07:38 06:45 8.90
178 BERANGERE MAHIA 1:07:49 06:46 8.87
179 THERESE FERAIN 1:07:53 06:46 8.87
180 SHADIA MUTONI 1:07:55 06:46 8.86
181 SHADIA MUTONI 1:08:01 06:47 8.85
182 JONATHAN DESCAMPS 1:08:39 06:51 8.77
183 OLIVIER DESSART 1:08:52 06:52 8.74
184 FANFAN THIRION 1:09:06 06:53 8.71
185 CHRISTIAN DENIS 1:09:07 06:53 8.71
186 LORENZO SERAFIN 1:09:10 06:54 8.70
187 PHILIPPE VANCUTSEM 1:09:15 06:54 8.69
188 FEMKE DE LUYCK 1:09:25 06:55 8.67
189 JEAN-PIERRE KINDERMANS 1:10:01 06:59 8.60
190 THOMAS BASTIN 01:10:45 07:03 8.51
191 VÉRONIQUE DÉSCAMPS 01:11:08 07:06 8.46
192 PASCALE BRIDOUX 01:11:16 07:06 8.44
193 NICOLAS AUQUIER 01:11:17 07:06 8.44
194 VERONIQUE VERSPECHT 01:11:18 07:07 8.44
195 ALAIN HOPPEN 01:11:18 07:07 8.44
196 CHRISTINE TORFS 01:11:19 07:07 8.44
197 VIRGINIE DETTORI 01:11:21 07:07 8.43
198 JEAN-LUC MARIEN 01:11:28 07:08 8.42
199 VERONIQUE CARLIER 01:13:01 07:17 8.24
200 BENEDICTE WARIN 01:13:34 07:20 8.18
201 CAMILLE SONET 01:15:24 07:31 7.98
202 VIRGINIE DELSINNE 01:15:25 07:31 7.98
203 CHRISTOPHE LASSEEL 01:15:36 07:32 7.96
204 CHRISTIANE DANIEL 01:18:07 07:47 7.70
205 CLAUDE SCHOONHEYT 01:18:15 07:48 7.69
206 JEAN-FRANCOIS LESSAGE 01:18:30 07:50 7.67
207 NATHALIE DI GREGORIO 01:18:42 07:51 7.65
208 VERONIQUE DESCAMPS 01:19:08 07:53 7.60
209 AMELIE ROLAND 01:20:24 08:01 7.49
210 PHILIPPE ROLAND 01:20:25 08:01 7.48
211 EMILIE ROLAND 01:20:25 08:01 7.48
212 SABRINA MONTEGNIES 01:22:51 08:16 7.26
213 UCILLIA PROCUREUR 01:22:52 08:16 7.26
214 CATHERINE FUMIERE 01:25:15 08:30 7.06
215 YVON DOYEN 01:27:07 08:41 6.91
216 PAULETTE LEROY 01:27:33 08:44 6.87
217 JEAN-MARIE MATTIOLI 01:29:42 08:57 6.71
218 MICHEL LEROY 01:39:04 09:53 6.07
219 PETROS GALOUZIS 01:39:34 09:56 6.04
220 JEAN-CLAUDE BUCHTA 01:40:11 09:59 6.01
221 JEAN-MARIE BUCHTA 01:40:20 10:00 6.00
222 JEAN-MARIE MATTIOLI 01:47:36 10:44 5.59
223 SABINE MARIET 01:51:29 11:07 5.40
224 AIME RARY 01:56:11 11:35 5.18
225 MARIE-LOUISE COUTELLIER 01:58:01 11:46 5.10
226 PATRICIA WUYTS 02:08:12 12:47 4.69
227 NELLY BAUDOUX 02:10:02 12:58 4.63
228 EUSTACHE LOUVIAUX 02:10:02 12:58 4.63
229 VÉRONIQUE DÉSCAMPS 02:32:37 15:13 3.94
         
Nos dernières videos